Simultaneous Nadir Overpasses (SNOs) Predictions

Prediction of SNOs between AQUA and NOAA-19 Satellite Orbit:

Table of predicted SNOs for the next 14.0 days since TLE Epoch: 1/23/2021
Index Date (AQUA) Time (AQUA) Lat,Lon (AQUA) SZA (AQUA ) Date (NOAA-19) Time (NOAA-19) Lat,Lon (NOAA-19) SZA (NOAA-19 ) Distance(km) Time Diff (sec)
1 01/23/2021 13:35:11 79.19, -48.72 99.64 01/23/2021 13:34:07 79.19, -48.55 99.65 3.57 64
2 01/23/2021 14:24:38 -79.21, 118.80 80.35 01/23/2021 14:25:02 -79.20, 118.79 80.37 1.36 24
3 01/25/2021 19:58:23 79.21,-144.59 99.11 01/25/2021 19:58:20 79.19,-144.51 99.10 2.23 3
4 01/28/2021 01:32:08 -79.20, -47.99 81.47 01/28/2021 01:31:29 -79.16, -47.96 81.48 3.98 39
5 01/28/2021 02:21:35 79.22, 119.52 98.56 01/28/2021 02:22:33 79.19, 119.50 98.52 3.47 58
6 01/30/2021 07:05:52 79.16, 48.80 97.90 01/30/2021 07:04:46 79.17, 48.87 97.92 1.64 66
7 01/30/2021 07:55:19 -79.17,-143.63 82.10 01/30/2021 07:55:41 -79.20,-143.63 82.09 2.62 22
8 02/01/2021 13:29:04 79.18, -47.12 97.30 02/01/2021 13:28:59 79.16, -47.16 97.29 2.40 5
9 02/03/2021 19:02:49 -79.17, 49.49 83.36 02/03/2021 19:02:08 -79.16, 49.59 83.37 3.00 41
10 02/03/2021 19:52:16 79.20,-143.05 96.67 02/03/2021 19:53:11 79.18,-142.94 96.63 3.16 55
11 02/06/2021 00:36:33 79.15, 146.20 95.94 02/06/2021 00:35:25 79.13, 146.10 95.95 3.61 68



Historial Predications of SNOs between AQUA and NOAA-19
